CZ-6A DEB, 54479

Orbit data source: Space-Track

CZ-6A DEB, 54479 is space debris in SSO originally from a launch on Fri, 11 Nov 2022 UTC launched from the Taiyaun Space Center, China (TSC). Debris objects in space refer to the collection of defunct objects orbiting the Earth. Examples of debris include non-operational satellites, rocket bodies, and fragments generated from explosions, collisions, or faulty payload assembly.

Loading next visibility...
Identifier
54479, 2022-151HF
Orbit
SSO
Country
Flag of CNCN / PRC
Related business
Manufacturer
SAST
Mission
Spacecraft
Bus & Motor
Unknown
Mass
Unknown
Launch date (UTC)
2022-11-11 (3 years ago)
Launch vehicle
Unknown
Launch site
Taiyaun Space Center, China (TSC)
Object type
Payload
Rocket body
Debris
Shape & HBR
Unknown shape, 0.1 m
Radar Cross Section
Small (<0.1 m²)

Expand to show TLE details & history
Last TLE update: 18 hours ago

TLE from 18 hours ago
0 CZ-6A DEB
1 54479U 22151HF  25353.58483279  .00008024  00000-0  15597-2 0  9997
2 54479  98.6408  38.4029 0087443 151.2259 209.3804 14.60974782163434
Epoch: 2025-12-19T14:02Z
TLE epoch observation values (Epoch: 2025-12-19T14:02:09.553Z)
Latitude
-0.00005°
Longitude
99.43922°
Altitude
746.998 km
Speed
7.453 km/s
True Right ascension
02h 33m 36s
True Declination
0° 00' 00"
Sunlit
Object was in full shadow at epoch
Visualization orbit readout
Latitude
Unknown
Longitude
Unknown
Altitude
Unknown
Speed
Unknown
Apparent Right ascension
Unknown
Apparent Declination
Unknown
Sunlit
N/A
Visualization observer readout
Local Sidereal Time
06:45:49
Azimuth
Unknown
Elevation
Unknown
Doppler factor
Unknown
Orbital elements
Apogee altitude
748.909 km
Perigee altitude
625.348 km
Semi-major axis
7,065.266 km
Eccentricity
0.00874
Inclination
98.6408°
RAAN
38.4029°
Arg. of periapsis
151.2259°
True anomaly
208.89345°
Mean anomaly
209.3804°
Eccentric anomaly
209.13646°
Mean motion
3.65469 °/min
Orbital period
98.5 mins
BSTAR
0.0015597
Loading maneuver chart data...
Computing Atmospheric mass density...
Loading historical data...
Loading historical data...
Loading historical data...
Loading historical data...
Loading historical data...
Loading historical data...
Loading historical data...

Documentation

Showing up to 5 results
|